Wind_Speed
12 12 9 8 7 6 4 3 4 4 2 4 4 4 4 4 5 7 7 7 8 8 10 10 9 7 4 3 2 1 3 1 3 7 10 13 11 9 7 7 10 7 11
13 11 10 8 8 7 6 6 6 5 1 2 4 6 6 5 5 3 2 5 6 8 6 6 7 8 7 7 7 8 8 6 6 5 10 13 14 14 17 17 18 17 13
15 12 11 11 10 9 8 6 4 3 2 3 2 2 2 4 4 6 4 4 3 4 5 5 6 7 7 7 7 7 8 10 13 13 14 15 17 18 22 24 24 26 27
15 14 14 14 13 10 8 6 3 2 2 1 2 1 1 1 1 1 2 3 3 4 4 4 3 4 3 3 6 7 9 9 11 10 11 13 15 18 23 26 28 26 19
17 15 13 12 12 11 9 6 4 3 3 3 3 3 1 1 4 3 4 2 0 1 2 3 6 7 6 5 3 8 8 7 7 9 11 13 14 11 14 16 20 20 21
17 15 15 13 10 8 6 4 2 4 5 3 1 2 1 4 6 4 3 1 2 2 2 3 8 7 11 12 11 12 13 12 10 10 11 14 16 16 13 15 17 17 18
17 15 14 12 10 8 5 4 5 5 6 3 2 2 2 6 2 1 4 1 2 2 2 2 3 6 6 7 12 13 12 15 16 15 12 11 15 15 17 20 20 21 22
16 14 13 11 9 8 7 8 8 6 4 4 3 2 3 4 2 1 2 1 6 5 4 4 5 6 11 14 17 13 12 12 12 14 16 18 16 17 22 24 25 26 26
17 15 13 11 10 9 8 7 6 5 5 3 2 1 3 6 4 3 3 3 7 10 9 8 8 9 14 17 21 17 16 16 15 16 19 23 27 21 18 19 18 19 23
19 17 16 12 10 7 7 7 7 4 3 3 3 4 5 4 5 6 6 5 10 11 11 12 16 11 13 17 24 22 19 18 18 19 22 22 22 21 19 22 18 20 21
23 20 17 14 10 9 7 6 4 4 6 3 3 6 6 6 9 10 10 9 10 11 13 13 13 14 18 24 27 24 16 19 19 19 18 18 16 17 17 15 14 17 21
23 20 15 12 8 7 6 4 4 4 3 4 5 7 9 9 12 11 11 12 15 15 13 13 14 20 23 24 20 20 19 23 18 15 18 17 18 20 20 23 25 24 26
21 17 15 11 9 7 6 5 4 3 4 6 8 9 8 7 10 13 15 15 18 17 12 14 18 21 25 24 20 24 18 18 17 19 19 22 21 21 21 21 22 23 26
20 18 16 11 10 8 6 4 4 6 5 6 7 9 9 10 9 7 9 15 17 14 13 16 22 25 23 23 23 21 19 20 21 20 25 26 23 22 23 22 22 20 20
15 14 11 10 9 8 8 9 6 8 6 3 6 7 9 7 10 15 19 15 13 15 21 24 23 23 23 24 24 24 24 24 24 24 25 25 27 26 22 24 22 21 22
16 11 11 8 8 7 6 7 11 7 6 8 9 8 7 12 16 17 17 18 20 22 26 25 23 23 26 27 24 25 25 25 26 27 29 28 29 28 27 24 25 21 22
14 14 13 8 8 8 8 7 7 8 8 7 8 10 12 12 15 18 19 19 22 20 24 24 27 30 29 25 29 27 27 30 32 31 30 32 36 33 30 28 27 28 27
18 12 10 10 7 7 7 5 7 8 8 9 9 13 17 16 20 22 21 21 22 20 26 25 23 25 26 26 27 28 26 27 33 37 38 43 46 35 31 31 34 29 27
17 16 13 9 7 8 6 6 7 8 8 8 8 12 11 14 21 21 19 21 21 23 25 25 25 26 26 28 28 32 40 47 51 52 47 44 43 43 42 39 33 34 30
17 15 13 11 7 7 5 6 7 7 7 7 8 8 8 19 14 15 18 19 22 24 24 25 25 25 25 32 40 49 50 43 43 42 40 39 39 37 35 33 36 35 29
12 15 11 8 7 6 6 6 6 6 5 6 8 8 13 18 14 19 21 21 24 24 24 24 25 25 32 44 47 46 42 38 37 37 37 37 34 29 32 28 26 31 31
12 10 7 8 7 5 5 4 3 4 5 7 9 12 16 16 18 22 22 24 24 24 24 24 25 30 38 44 46 41 33 34 38 38 38 36 33 28 17 19 20 21 18
11 9 8 8 7 5 3 2 3 4 6 7 11 14 16 19 20 22 23 24 24 23 23 23 29 35 43 45 41 30 30 33 31 32 32 24 16 6 10 12 11 14 14
10 8 7 7 6 4 3 2 2 5 6 10 13 15 17 19 21 22 23 24 23 23 24 26 31 34 39 41 33 27 28 27 22 20 19 18 12 5 2 2 7 9 14
8 8 8 7 4 4 2 1 3 6 9 12 15 17 19 21 21 21 23 22 23 23 23 26 28 38 42 36 28 26 25 21 15 14 10 7 7 7 3 2 5 7 8
8 7 8 7 6 5 2 3 5 8 11 14 16 18 20 20 20 22 21 23 23 22 25 25 30 41 37 32 26 24 23 18 13 11 10 8 6 4 2 3 6 5 4
Wind_Direction
168 164 166 175 200 157 172 166 163 125 113 86 72 61 52 16 29 39 45 5 32 21 17 9 356 343 327 296 278 38 42 164 190 197 201 192 208 207 192 251 232 261 266
163 169 200 183 148 170 161 167 132 126 98 89 59 50 4 22 38 59 35 38 27 26 8 4 12 353 355 342 318 293 292 270 230 210 223 231 236 231 224 222 219 225 237
181 171 152 156 159 161 153 145 153 171 151 80 65 74 101 19 358 4 40 34 0 337 9 16 18 33 13 5 352 337 326 298 282 268 251 243 238 234 238 241 252 260 265
156 153 151 157 157 152 150 132 125 89 89 133 195 140 54 44 345 309 327 352 17 355 9 24 7 357 350 49 15 27 336 348 335 322 298 277 269 256 262 266 262 262 282
157 158 160 155 155 155 172 195 211 172 219 253 290 328 16 348 248 300 320 316 229 101 89 28 340 343 348 356 350 337 336 336 316 310 304 310 313 314 301 282 278 278 254
162 162 167 170 170 178 187 172 198 286 292 307 255 220 274 251 291 288 175 319 29 56 5 352 326 13 357 344 337 339 336 330 321 306 297 287 285 293 290 288 285 285 279
169 173 171 170 174 187 188 208 237 248 264 249 261 271 276 280 334 26 121 292 295 312 321 326 50 314 341 322 327 335 338 323 325 319 300 289 287 287 285 284 281 276 276
174 173 176 172 174 190 212 232 249 259 262 267 264 239 228 268 342 10 345 44 290 296 296 297 305 317 293 304 329 333 322 312 301 289 281 283 284 283 282 280 269 267 273
175 179 181 178 176 196 216 226 241 260 263 255 247 281 232 276 313 326 345 294 280 291 285 277 285 293 287 309 324 324 316 311 306 296 287 284 287 296 294 296 283 274 275
179 180 181 174 182 185 208 237 254 244 225 219 257 260 244 271 306 313 314 307 293 295 297 304 303 272 277 308 316 317 309 308 297 290 293 291 291 294 292 284 279 278 271
183 182 181 191 178 199 230 245 223 177 225 234 249 254 257 264 283 299 306 307 297 297 302 305 299 295 308 308 309 314 306 316 310 303 302 295 294 281 274 282 278 282 268
182 182 184 180 168 209 218 209 198 214 218 254 262 283 276 258 300 304 309 303 300 301 299 296 291 290 297 312 322 322 309 313 305 300 307 300 297 291 284 272 271 269 272
186 187 183 183 188 213 190 192 199 250 248 272 272 291 286 277 299 308 326 329 327 327 308 292 298 310 314 311 310 305 304 296 293 292 301 299 300 297 291 284 284 279 274
189 192 194 192 192 178 190 217 229 252 266 278 283 286 290 291 293 295 318 319 316 314 307 305 301 306 308 301 305 307 301 292 287 286 287 296 289 291 292 287 278 279 275
187 186 193 171 158 185 177 208 214 236 224 247 291 288 295 290 287 285 302 309 308 303 304 305 306 305 301 302 297 298 299 292 289 286 289 285 283 284 283 288 285 278 272
195 192 191 173 164 180 205 205 216 232 283 296 287 276 270 287 298 309 312 311 308 306 303 295 294 293 289 292 295 302 298 294 291 287 286 285 282 276 277 282 277 274 274
185 187 185 181 180 197 213 219 240 247 272 275 319 328 326 333 332 332 329 325 322 314 296 291 286 290 284 295 301 296 296 293 289 289 287 286 282 276 270 272 269 269 268
169 186 182 175 192 217 216 227 249 258 269 287 300 315 323 321 331 335 333 317 311 311 302 305 303 309 314 315 309 308 307 301 295 292 291 283 282 287 273 269 269 255 262
188 175 169 186 178 217 224 232 244 266 285 296 302 303 317 331 328 326 324 314 304 303 314 313 311 312 317 315 309 304 303 298 294 294 296 290 286 281 278 272 260 264 263
164 169 173 165 200 207 224 234 255 274 288 298 302 307 316 330 327 324 329 324 319 317 316 315 313 315 313 312 310 307 308 307 307 305 300 295 290 284 274 274 265 257 257
159 169 165 158 177 182 218 254 266 277 291 299 307 305 318 327 309 325 327 327 324 322 319 317 316 311 310 315 316 318 318 315 314 310 303 296 289 286 276 270 267 251 255
149 147 162 169 160 180 218 245 264 280 294 306 318 320 326 326 322 328 329 328 327 324 322 320 315 310 314 321 325 324 322 321 317 315 312 305 296 270 267 259 259 252 240
164 151 163 162 171 199 190 237 271 296 311 320 325 329 330 329 328 329 331 329 327 326 324 322 313 314 320 327 330 328 326 324 329 334 330 319 294 239 248 246 254 248 249
155 162 160 173 174 188 210 230 276 308 325 332 332 333 333 332 331 332 331 330 330 327 324 322 317 321 327 333 335 334 334 334 341 353 21 46 56 30 230 271 241 235 244
171 168 172 176 180 177 180 258 311 329 336 334 334 332 330 332 332 334 332 334 330 328 329 329 319 328 334 340 340 340 341 343 347 356 10 17 21 23 8 257 250 281 267
181 183 178 181 185 182 207 296 323 334 333 334 332 333 333 331 333 334 335 331 332 334 334 334 323 331 340 345 345 346 346 352 0 12 25 23 11 342 300 274 286 286 221
Height
1507 1509 1510 1512 1512 1514 1517 1516 1515 1515 1514 1514 1515 1514 1513 1513 1512 1511 1511 1510 1510 1509 1508 1507 1505 1504 1504 1503 1503 1503 1502 1502 1501 1502 1505 1506 1507 1508 1509 1512 1515 1515 1516
1506 1508 1508 1510 1513 1516 1516 1517 1515 1515 1514 1514 1514 1515 1513 1513 1512 1512 1512 1510 1510 1509 1508 1508 1506 1504 1503 1503 1502 1502 1501 1502 1502 1503 1504 1504 1505 1505 1507 1508 1509 1510 1510
1503 1506 1509 1512 1514 1514 1516 1516 1515 1514 1514 1514 1513 1513 1513 1513 1513 1512 1511 1510 1510 1509 1508 1507 1506 1504 1503 1502 1502 1501 1501 1500 1500 1500 1502 1501 1501 1501 1502 1503 1504 1504 1504
1504 1507 1509 1511 1513 1515 1515 1516 1516 1515 1516 1515 1514 1512 1511 1511 1511 1510 1509 1509 1508 1507 1506 1506 1503 1502 1502 1503 1504 1502 1501 1500 1499 1499 1499 1498 1497 1497 1498 1498 1498 1497 1496
1504 1506 1508 1510 1511 1512 1512 1512 1513 1515 1514 1513 1513 1513 1513 1512 1510 1510 1511 1508 1506 1504 1504 1504 1501 1500 1500 1500 1500 1499 1498 1499 1500 1500 1499 1496 1496 1495 1494 1493 1492 1491 1492
1503 1506 1508 1509 1510 1510 1511 1512 1514 1513 1512 1512 1511 1510 1511 1510 1507 1506 1507 1508 1508 1507 1506 1504 1501 1499 1498 1497 1497 1497 1497 1496 1496 1496 1496 1495 1493 1493 1493 1492 1490 1487 1486
1503 1504 1506 1507 1508 1509 1510 1511 1512 1511 1511 1512 1512 1511 1510 1507 1506 1508 1508 1510 1510 1506 1504 1504 1503 1500 1499 1496 1496 1495 1496 1493 1492 1492 1491 1491 1490 1490 1488 1485 1485 1483 1481
1502 1504 1506 1506 1507 1508 1509 1510 1510 1510 1511 1511 1511 1510 1510 1508 1506 1504 1505 1507 1509 1507 1504 1503 1501 1500 1496 1496 1494 1493 1493 1492 1491 1490 1489 1487 1486 1484 1481 1479 1477 1474 1473
1500 1503 1506 1506 1506 1507 1509 1509 1510 1510 1510 1510 1511 1510 1511 1508 1507 1504 1502 1504 1508 1506 1502 1500 1498 1496 1493 1493 1491 1489 1488 1487 1486 1485 1482 1480 1477 1476 1475 1473 1471 1470 1467
1498 1500 1502 1504 1505 1507 1508 1509 1508 1509 1510 1511 1510 1511 1509 1508 1507 1505 1502 1503 1506 1505 1502 1499 1494 1493 1490 1488 1487 1485 1484 1483 1480 1477 1475 1472 1470 1468 1468 1466 1466 1465 1463
1495 1497 1499 1501 1503 1505 1506 1506 1507 1508 1509 1509 1509 1510 1510 1509 1506 1505 1503 1502 1503 1502 1500 1498 1494 1490 1487 1485 1483 1481 1479 1476 1473 1470 1469 1467 1465 1463 1464 1463 1460 1459 1457
1492 1495 1496 1500 1503 1502 1504 1505 1507 1508 1508 1508 1509 1508 1507 1506 1504 1502 1501 1499 1498 1497 1497 1495 1493 1488 1485 1483 1479 1476 1474 1471 1469 1467 1465 1462 1460 1458 1457 1456 1455 1453 1451
1493 1495 1497 1498 1500 1501 1504 1505 1507 1508 1508 1508 1508 1508 1507 1506 1503 1500 1498 1497 1496 1494 1493 1491 1487 1484 1481 1477 1475 1472 1469 1466 1465 1463 1460 1458 1456 1454 1451 1449 1447 1446 1443
1492 1493 1495 1495 1497 1500 1504 1506 1507 1508 1508 1507 1507 1506 1505 1505 1503 1501 1498 1495 1493 1491 1488 1486 1483 1479 1476 1473 1469 1467 1464 1462 1459 1457 1454 1451 1450 1448 1446 1443 1441 1439 1437
1495 1497 1501 1495 1495 1500 1503 1505 1506 1505 1504 1504 1506 1505 1505 1503 1499 1497 1495 1492 1490 1488 1484 1481 1478 1474 1471 1466 1463 1461 1458 1456 1453 1451 1448 1445 1443 1441 1438 1437 1434 1432 1430
1491 1498 1500 1495 1497 1501 1502 1502 1503 1504 1504 1504 1504 1502 1503 1499 1497 1494 1491 1488 1486 1483 1480 1475 1471 1468 1463 1458 1457 1454 1452 1449 1446 1443 1441 1437 1435 1433 1431 1429 1428 1426 1423
1486 1494 1495 1498 1497 1500 1501 1501 1501 1502 1502 1501 1500 1500 1499 1497 1494 1490 1487 1484 1481 1478 1473 1468 1464 1460 1455 1453 1450 1447 1444 1441 1438 1434 1431 1429 1426 1423 1421 1420 1419 1417 1416
1486 1497 1496 1496 1498 1500 1499 1499 1501 1502 1500 1497 1497 1497 1494 1492 1490 1487 1484 1480 1476 1472 1467 1461 1458 1456 1452 1449 1445 1441 1437 1433 1429 1425 1421 1418 1415 1412 1409 1408 1409 1407 1407
1481 1485 1492 1495 1494 1498 1499 1498 1499 1500 1500 1498 1497 1494 1491 1489 1486 1483 1480 1476 1471 1468 1464 1460 1456 1452 1447 1443 1439 1433 1428 1422 1417 1411 1404 1401 1398 1397 1395 1395 1396 1397 1398
1483 1484 1490 1488 1490 1496 1498 1498 1498 1499 1498 1496 1495 1493 1492 1489 1484 1480 1478 1474 1470 1465 1460 1456 1452 1448 1442 1437 1431 1425 1416 1408 1401 1396 1391 1388 1385 1383 1381 1382 1383 1386 1387
1482 1483 1488 1487 1489 1493 1496 1497 1497 1497 1495 1495 1493 1490 1489 1485 1480 1477 1473 1470 1466 1461 1456 1452 1448 1442 1436 1430 1422 1412 1403 1396 1391 1385 1379 1375 1371 1369 1369 1370 1372 1374 1378
1483 1484 1488 1489 1489 1491 1494 1495 1495 1495 1494 1493 1491 1487 1483 1480 1477 1474 1470 1466 1462 1457 1453 1448 1443 1436 1431 1422 1411 1401 1394 1389 1382 1374 1366 1360 1356 1355 1359 1362 1365 1367 1370
1484 1484 1487 1488 1489 1489 1492 1494 1494 1494 1492 1490 1487 1484 1482 1478 1475 1471 1467 1462 1458 1454 1449 1444 1438 1431 1423 1414 1403 1395 1390 1383 1375 1368 1356 1347 1345 1347 1354 1357 1360 1363 1365
1482 1484 1486 1488 1489 1490 1492 1493 1493 1492 1490 1487 1485 1482 1479 1476 1472 1468 1464 1459 1455 1450 1445 1439 1432 1426 1417 1406 1397 1391 1385 1378 1372 1367 1361 1354 1352 1354 1355 1357 1359 1361 1362
1482 1483 1485 1487 1488 1490 1491 1492 1491 1490 1487 1485 1482 1480 1476 1473 1469 1465 1461 1457 1452 1447 1442 1436 1429 1421 1412 1401 1394 1388 1382 1376 1371 1367 1363 1360 1358 1358 1358 1358 1359 1360 1360
1481 1482 1484 1486 1489 1489 1490 1490 1489 1487 1485 1483 1480 1477 1474 1471 1467 1463 1459 1454 1449 1444 1439 1434 1425 1417 1406 1398 1392 1386 1381 1375 1371 1368 1364 1363 1361 1361 1360 1359 1359 1359 1359